Weather History for KHPN - February, 2013

Change the Weather History Date:

Monday, February 4, 2013

  Actual Average (KLGA) Record (KLGA)
Temperature  
Mean Temperature 24 °F 34 °F  
Max Temperature 28 °F 40 °F 68 °F (1991)
Min Temperature 21 °F 27 °F 10 °F (1996)
Degree Days  
Heating Degree Days 40 31  
Month to date heating degree days 126  
Since 1 July heating degree days 2725  
Cooling Degree Days 0 0  
Month to date cooling degree days 0  
Year to date cooling degree days 0  
Moisture  
Dew Point 8 °F    
Average Humidity 49    
Maximum Humidity 75    
Minimum Humidity 36    
Precipitation  
Precipitation 0.00 in 0.10 in 1.72 in (1961)
Month to date precipitation 0.39  
Year to date precipitation 3.56  
Snow  
Snow 0.00 in 0.30 in 11.90 in (1961)
Month to date snowfall 1.3  
Since 1 July snowfall 14.2  
Snow Depth -    
Sea Level Pressure  
Sea Level Pressure 29.91 in    
Wind  
Wind Speed 10 mph (WNW)    
Max Wind Speed 17 mph    
Max Gust Speed 32 mph    
Visibility 10 miles    
Events      
T = Trace of Precipitation, MM = Missing Value Source: NWS Daily Summary

Daily Weather History Graph

Daily Weather History Graph

Search for Another Location

Airport or City:

Trip Planner

Search our weather history database for the weather conditions in past years. The results will help you decide how hot, cold, wet, or windy it might be!

Date:

Astronomy

Feb. 04, 2013 Rise Set
Actual Time 7:02 AM EST 5:15 PM EST
Civil Twilight 6:33 AM EST 5:44 PM EST
Nautical Twilight 6:00 AM EST 6:17 PM EST
Astronomical Twilight 5:28 AM EST 6:49 PM EST
Moon 1:35 AM EST (2/4) 11:36 AM EST (2/4)
Length of Visible Light 11h 11m
Length of Day
10h 13m
Last Quarter, 37% of the Moon is Illuminated
Feb 4
Last Quarter
Feb 10
New
Feb 17
First Quarter
Feb 25
Full
Mar 4
Last Quarter

Hourly Weather History & Observations

Time (EST) Temp. Windchill Dew Point Humidity Pressure Visibility Wind Dir Wind Speed Gust Speed Precip Events Conditions
12:56 AM 25.0 °F 17.1 °F 18.0 °F 75% 29.80 in 6.0 mi West 6.9 mph - 0.00 in   Overcast
1:56 AM 25.0 °F 14.2 °F 18.0 °F 75% 29.80 in 6.0 mi West 11.5 mph - N/A   Overcast
2:56 AM 25.0 °F 14.8 °F 12.0 °F 58% 29.81 in 10.0 mi West 10.4 mph 20.7 mph N/A   Scattered Clouds
3:56 AM 24.1 °F 11.0 °F 12.9 °F 62% 29.83 in 10.0 mi NW 16.1 mph 25.3 mph N/A   Scattered Clouds
5:56 AM 21.9 °F 11.0 °F 9.0 °F 58% 29.89 in 10.0 mi West 10.4 mph 21.9 mph N/A   Clear
6:56 AM 21.9 °F 7.8 °F 8.1 °F 55% 29.91 in 10.0 mi WNW 17.3 mph 32.2 mph N/A   Clear
7:56 AM 21.9 °F 9.8 °F 8.1 °F 55% 29.93 in 10.0 mi WNW 12.7 mph - N/A   Clear
8:56 AM 24.1 °F 11.0 °F 7.0 °F 48% 29.94 in 10.0 mi WNW 16.1 mph 25.3 mph N/A   Clear
9:56 AM 25.0 °F 12.2 °F 7.0 °F 46% 29.94 in 10.0 mi West 16.1 mph 23.0 mph N/A   Partly Cloudy
10:56 AM 27.0 °F 14.7 °F 7.0 °F 43% 29.94 in 10.0 mi WNW 16.1 mph 23.0 mph N/A   Clear
11:56 AM 27.0 °F 16.1 °F 6.1 °F 41% 29.92 in 10.0 mi WNW 12.7 mph 19.6 mph N/A   Mostly Cloudy
12:56 PM 28.0 °F 17.5 °F 3.9 °F 36% 29.91 in 10.0 mi WNW 12.7 mph 25.3 mph N/A   Mostly Cloudy
1:56 PM 28.0 °F 17.0 °F 6.1 °F 39% 29.90 in 10.0 mi WNW 13.8 mph 29.9 mph N/A   Mostly Cloudy
2:56 PM 27.0 °F 14.7 °F 5.0 °F 39% 29.90 in 10.0 mi WNW 16.1 mph 23.0 mph N/A   Scattered Clouds
3:56 PM 28.0 °F 16.1 °F 6.1 °F 39% 29.91 in 10.0 mi WNW 16.1 mph 21.9 mph N/A   Scattered Clouds
4:56 PM 28.0 °F 20.0 °F 5.0 °F 38% 29.92 in 10.0 mi West 8.1 mph 18.4 mph N/A   Scattered Clouds
5:56 PM 27.0 °F 18.7 °F 5.0 °F 39% 29.94 in 10.0 mi West 8.1 mph - N/A   Partly Cloudy
6:56 PM 26.1 °F 19.4 °F 6.1 °F 43% 29.96 in 10.0 mi WSW 5.8 mph - N/A   Clear
7:56 PM 26.6 °F 21.2 °F 6.8 °F 43% 29.94 in 10.0 mi West 4.6 mph - N/A   Partly Cloudy
8:56 PM 25.0 °F - 7.0 °F 46% 29.97 in 10.0 mi Calm Calm - N/A   Scattered Clouds
9:56 PM 25.0 °F - 8.1 °F 49% 29.97 in 10.0 mi Calm Calm - N/A   Clear
10:56 PM 25.0 °F - 10.0 °F 53% 29.97 in 10.0 mi Calm Calm - N/A   Overcast
11:56 PM 26.1 °F - 10.0 °F 51% 29.97 in 10.0 mi Calm Calm - N/A   Overcast